Location: Chatou
(48.8898°N, 2.1586°E)
Time: 16:48:16
(UTC+00:00)

STRAND 1 - Pass Details

Date: 06 December 2023
Orbit: 766 x 778 km, 98.4° (Epoch: 26 February)

Event Time Altitude Azimuth Distance (km) Brightness Sun altitude
Rises 03:38:37 0° 109° (ESE) 3,240 ? -36.8°
Reaches altitude 10° 03:41:55 10° 86° (E) 2,315 ? -36.3°
Maximum altitude 03:44:37 15° 54° (NE) 2,012 ? -35.9°
Drops below altitude 10° 03:47:20 10° 22° (NNE) 2,320 ? -35.4°
Enters shadow 03:48:30 - 12° (NNE) 2,603 ? -35.2°
